Location: Kalberh�ni
(46.4610°N, 7.2453°E)
Time: 18:12:34
(UTC+00:00)

Meteor 2-1 Rocket - Pass Details

Date: 26 October 2021
Orbit: 830 x 906 km, 81.3° (Epoch: 28 November)

Event Time Altitude Azimuth Distance (km) Brightness Sun altitude
Rises 17:40:09 0° 143° (SE) 3,417 7.0 -13.5°
Enters shadow 17:42:07 - 134° (SE) 2,798 6.5 -13.8°
Exits shadow 17:52:15 - 32° (NNE) 2,921 6.7 -15.6°
Sets 17:53:43 0° 25° (NNE) 3,392 7.1 -15.8°
